map of KUDG home
Great Circle Mapper logo
KUDG - Airport
Location
City:  Darlington, South Carolina, United States
Name:Darlington County Airport
ICAO:KUDG
FAA LID:UDG

Details
Type:Airport (Airfield)
Use:Public/Civil
Latitude:3426'58"N (34.449384)
Longitude:7953'24"W (-79.890060)
Datum:WGS 1984
Elevation:192 ft (59 m)
Variation:8.16W (WMM2015 magnetic declination)
-0.06 annual change
Runways:1
Longest:5500 × 100 ft (1676 × 30.5 m), paved

Time
Time Zone:UTC-5 (DST-4)
Local Time:

Weather
METAR:KUDG 291156Z AUTO 22005KT 4SM BR 24/23 A2997 RMK AO2 SLP151 70216 T02390228 10239 20228 51013 $

Related Locations
Nearby:
Farthest:MQZ: 11586 mi / 18645 km
Margaret River [Margaret River Airport], WA, AU

Find:

   beyond  
but within

Other Information
Maps:
NOTAMs:
Links:
Sources:

  
flag of United States
flag of South Carolina
  

Sectional Chart

Flight Planning
at skyvector.com

Satellite Image

Google Maps Satellite view

 

Copyright © 2004-2016 Karl L. Swartz. All rights reserved.
The Great Circle Mapper name and logo are trademarks of the Great Circle Mapper.
All other trademarks mentioned herein belong to their respective owners.
Please see credits for attibutions and further copyright information.

  Follow gcmap on Facebook Follow gcmap on Twitter Follow gcmap on Google+ GCmap on LinkedIn

hCard Microformat

Geo Microformat